| time (UTC) | temp C | wind direction | speed KPH | gust KPH | rain 1hr cm | rain 24hr cm | rain mn cm | humidity % | barometer mb |
| 20260504214950 | 28 | 271 | 9.7 | 12.9 | 0.00 | 0.00 | 0.00 | 42 | 1015.0 |
| 20260504214446 | 28 | 192 | 1.6 | 3.2 | 0.00 | 0.00 | 0.00 | 43 | 1014.7 |
| 20260504213943 | 28 | 197 | 3.2 | 4.8 | 0.00 | 0.00 | 0.00 | 44 | 1014.8 |
| 20260504213438 | 28 | 191 | 1.6 | 1.6 | 0.00 | 0.00 | 0.00 | 44 | 1014.8 |
| 20260504212937 | 28 | 309 | 1.6 | 3.2 | 0.00 | 0.00 | 0.00 | 43 | 1015.0 |
| 20260504212432 | 28 | 180 | 3.2 | 4.8 | 0.00 | 0.00 | 0.00 | 43 | 1015.0 |
| 20260504211930 | 28 | 172 | 0.0 | 0.0 | 0.00 | 0.00 | 0.00 | 42 | 1015.1 |
| 20260504211426 | 29 | 90 | 3.2 | 4.8 | 0.00 | 0.00 | 0.00 | 43 | 1015.0 |
| 20260504210924 | 28 | 172 | 0.0 | 0.0 | 0.00 | 0.00 | 0.00 | 44 | 1015.0 |
| 20260504210420 | 29 | 151 | 0.0 | 1.6 | 0.00 | 0.00 | 0.00 | 42 | 1015.1 |
| 20260504205918 | 28 | 181 | 0.0 | 0.0 | 0.00 | 0.00 | 0.00 | 42 | 1015.2 |
| 20260504205415 | 29 | 164 | 0.0 | 0.0 | 0.00 | 0.00 | 0.00 | 43 | 1015.2 |
| 20260504204913 | 29 | 184 | 3.2 | 3.2 | 0.00 | 0.00 | 0.00 | 43 | 1015.0 |
| 20260504204411 | 29 | 182 | 0.0 | 1.6 | 0.00 | 0.00 | 0.00 | 43 | 1015.1 |
| 20260504203911 | 28 | 267 | 6.4 | 6.4 | 0.00 | 0.00 | 0.00 | 43 | 1015.2 |
| 20260504203407 | 28 | 161 | 1.6 | 1.6 | 0.00 | 0.00 | 0.00 | 44 | 1015.3 |
| 20260504202903 | 29 | 166 | 1.6 | 1.6 | 0.00 | 0.00 | 0.00 | 42 | 1015.2 |
| 20260504202400 | 29 | 173 | 0.0 | 1.6 | 0.00 | 0.00 | 0.00 | 43 | 1015.3 |
| 20260504201856 | 29 | 11 | 1.6 | 3.2 | 0.00 | 0.00 | 0.00 | 42 | 1015.3 |
| 20260504201354 | 29 | 132 | 3.2 | 4.8 | 0.00 | 0.00 | 0.00 | 40 | 1015.3 |
| 20260504200851 | 30 | 106 | 4.8 | 6.4 | 0.00 | 0.00 | 0.00 | 38 | 1015.6 |
| 20260504200348 | 30 | 167 | 1.6 | 3.2 | 0.00 | 0.00 | 0.00 | 39 | 1015.8 |
| 20260504195844 | 30 | 211 | 6.4 | 9.7 | 0.00 | 0.00 | 0.00 | 39 | 1015.6 |
| 20260504195340 | 30 | 259 | 6.4 | 6.4 | 0.00 | 0.00 | 0.00 | 40 | 1015.7 |
| 20260504194837 | 30 | 184 | 4.8 | 6.4 | 0.00 | 0.00 | 0.00 | 41 | 1015.7 |
| 20260504194333 | 30 | 327 | 3.2 | 4.8 | 0.00 | 0.00 | 0.00 | 39 | 1015.9 |
| 20260504193829 | 29 | 170 | 1.6 | 3.2 | 0.00 | 0.00 | 0.00 | 41 | 1015.9 |
| 20260504193327 | 29 | 285 | 9.7 | 14.5 | 0.00 | 0.00 | 0.00 | 43 | 1016.2 |
| 20260504192825 | 28 | 165 | 1.6 | 3.2 | 0.00 | 0.00 | 0.00 | 45 | 1016.3 |
| 20260504192323 | 28 | 175 | 3.2 | 3.2 | 0.00 | 0.00 | 0.00 | 43 | 1015.9 |
| 20260504191821 | 28 | 170 | 0.0 | 0.0 | 0.00 | 0.00 | 0.00 | 43 | 1016.0 |
| 20260504191318 | 28 | 102 | 1.6 | 3.2 | 0.00 | 0.00 | 0.00 | 44 | 1016.2 |
| 20260504190813 | 29 | 152 | 3.2 | 3.2 | 0.00 | 0.00 | 0.00 | 43 | 1016.3 |
| 20260504190310 | 29 | 166 | 0.0 | 0.0 | 0.00 | 0.00 | 0.00 | 46 | 1016.2 |
| 20260504185806 | 29 | 322 | 3.2 | 3.2 | 0.00 | 0.00 | 0.00 | 42 | 1016.5 |
| 20260504185304 | 29 | 109 | 3.2 | 4.8 | 0.00 | 0.00 | 0.00 | 42 | 1016.4 |
| 20260504184759 | 29 | 149 | 4.8 | 6.4 | 0.00 | 0.00 | 0.00 | 45 | 1016.4 |
| 20260504184255 | 30 | 197 | 0.0 | 0.0 | 0.00 | 0.00 | 0.00 | 43 | 1016.6 |
| 20260504183751 | 28 | 99 | 4.8 | 4.8 | 0.00 | 0.00 | 0.00 | 43 | 1016.8 |
| 20260504183248 | 28 | 168 | 0.0 | 0.0 | 0.00 | 0.00 | 0.00 | 45 | 1016.8 |
| 20260504182747 | 28 | 290 | 4.8 | 4.8 | 0.00 | 0.00 | 0.00 | 44 | 1016.9 |
| 20260504182243 | 28 | 161 | 0.0 | 0.0 | 0.00 | 0.00 | 0.00 | 45 | 1017.1 |
| 20260504181741 | 29 | 337 | 4.8 | 6.4 | 0.00 | 0.00 | 0.00 | 43 | 1017.0 |
| 20260504181238 | 30 | 193 | 6.4 | 9.7 | 0.00 | 0.00 | 0.00 | 42 | 1017.3 |
| 20260504180737 | 29 | 166 | 0.0 | 0.0 | 0.00 | 0.00 | 0.00 | 43 | 1017.4 |
| 20260504180236 | 30 | 152 | 1.6 | 1.6 | 0.00 | 0.00 | 0.00 | 44 | 1017.5 |
| 20260504175733 | 30 | 174 | 1.6 | 1.6 | 0.00 | 0.00 | 0.00 | 42 | 1017.4 |
| 20260504175229 | 28 | 171 | 3.2 | 3.2 | 0.00 | 0.00 | 0.00 | 45 | 1017.5 |
| 20260504174727 | 30 | 186 | 4.8 | 6.4 | 0.00 | 0.00 | 0.00 | 43 | 1017.5 |
| 20260504174225 | 27 | 164 | 1.6 | 1.6 | 0.00 | 0.00 | 0.00 | 45 | 1017.6 |
| 20260504173721 | 30 | 104 | 3.2 | 4.8 | 0.00 | 0.00 | 0.00 | 45 | 1017.6 |
| 20260504173218 | 29 | 172 | 3.2 | 4.8 | 0.00 | 0.00 | 0.00 | 45 | 1017.6 |
| 20260504172715 | 30 | 191 | 1.6 | 1.6 | 0.00 | 0.00 | 0.00 | 42 | 1017.7 |
| 20260504172211 | 29 | 326 | 4.8 | 9.7 | 0.00 | 0.00 | 0.00 | 44 | 1017.7 |
| 20260504171708 | 29 | 33 | 0.0 | 3.2 | 0.00 | 0.00 | 0.00 | 43 | 1017.7 |
| 20260504171205 | 30 | 113 | 1.6 | 3.2 | 0.00 | 0.00 | 0.00 | 42 | 1017.7 |
| 20260504170701 | 29 | 137 | 4.8 | 4.8 | 0.00 | 0.00 | 0.00 | 46 | 1017.7 |
| 20260504170159 | 28 | 178 | 3.2 | 3.2 | 0.00 | 0.00 | 0.00 | 46 | 1017.8 |
| 20260504160117 | 27 | 173 | 3.2 | 3.2 | 0.00 | 0.00 | 0.00 | 48 | 1018.5 |
| 20260504151045 | 26 | 175 | 0.0 | 1.6 | 0.00 | 0.00 | 0.00 | 55 | 1018.7 |
| 20260504150543 | 26 | 234 | 4.8 | 6.4 | 0.00 | 0.00 | 0.00 | 52 | 1018.7 |
| 20260504141009 | 24 | 126 | 8.0 | 12.9 | 0.00 | 0.00 | 0.00 | 63 | 1018.6 |
| 20260504140505 | 24 | 112 | 9.7 | 16.1 | 0.00 | 0.00 | 0.00 | 63 | 1018.5 |
| 20260504130430 | 22 | 246 | 4.8 | 4.8 | 0.00 | 0.00 | 0.00 | 71 | 1018.4 |
| 20260504110317 | 17 | 173 | 0.0 | 0.0 | 0.00 | 0.00 | 0.00 | 88 | 1017.6 |
| 20260504100234 | 17 | 241 | 1.6 | 4.8 | 0.00 | 0.00 | 0.00 | 88 | 1017.4 |
| 20260504081627 | 18 | 203 | 3.2 | 3.2 | 0.00 | 0.00 | 0.00 | 84 | 1017.1 |
| 20260504081123 | 18 | 184 | 3.2 | 3.2 | 0.00 | 0.00 | 0.00 | 84 | 1017.4 |
| 20260504080620 | 18 | 198 | 3.2 | 3.2 | 0.00 | 0.00 | 0.00 | 84 | 1017.3 |
| 20260504080116 | 18 | 176 | 0.0 | 0.0 | 0.00 | 0.00 | 0.00 | 85 | 1017.2 |
| 20260504050432 | 20 | 167 | 0.0 | 0.0 | 0.00 | 0.00 | 0.00 | 79 | 1018.0 |
| 20260504045930 | 20 | 120 | 3.2 | 4.8 | 0.00 | 0.00 | 0.00 | 79 | 1018.0 |
| 20260504045425 | 20 | 162 | 3.2 | 3.2 | 0.00 | 0.00 | 0.00 | 79 | 1018.0 |
| 20260504044922 | 20 | 219 | 3.2 | 4.8 | 0.00 | 0.00 | 0.00 | 79 | 1017.9 |
| 20260504044419 | 20 | 174 | 1.6 | 1.6 | 0.00 | 0.00 | 0.00 | 79 | 1018.3 |
| 20260504043917 | 20 | 178 | 0.0 | 1.6 | 0.00 | 0.00 | 0.00 | 79 | 1018.5 |
| 20260504043413 | 20 | 181 | 0.0 | 1.6 | 0.00 | 0.00 | 0.00 | 79 | 1018.4 |
| 20260504042911 | 20 | 189 | 0.0 | 1.6 | 0.00 | 0.00 | 0.00 | 78 | 1018.5 |
| 20260504042407 | 20 | 163 | 1.6 | 1.6 | 0.00 | 0.00 | 0.00 | 78 | 1018.8 |
| 20260504041904 | 20 | 163 | 1.6 | 1.6 | 0.00 | 0.00 | 0.00 | 78 | 1018.6 |
| 20260504041400 | 20 | 175 | 0.0 | 0.0 | 0.00 | 0.00 | 0.00 | 78 | 1018.7 |
| 20260504040855 | 20 | 179 | 0.0 | 1.6 | 0.00 | 0.00 | 0.00 | 78 | 1018.7 |
| 20260504040354 | 20 | 168 | 0.0 | 0.0 | 0.00 | 0.00 | 0.00 | 79 | 1018.9 |
| 20260504035849 | 20 | 175 | 0.0 | 0.0 | 0.00 | 0.00 | 0.00 | 79 | 1019.0 |
| 20260504035348 | 20 | 152 | 0.0 | 0.0 | 0.00 | 0.00 | 0.00 | 78 | 1018.8 |
| 20260504034844 | 21 | 169 | 3.2 | 3.2 | 0.00 | 0.00 | 0.00 | 78 | 1018.9 |
| 20260504034341 | 21 | 168 | 1.6 | 1.6 | 0.00 | 0.00 | 0.00 | 78 | 1018.9 |
| 20260504033838 | 21 | 179 | 0.0 | 0.0 | 0.00 | 0.00 | 0.00 | 78 | 1018.8 |
| 20260504033336 | 21 | 244 | 1.6 | 3.2 | 0.00 | 0.00 | 0.00 | 78 | 1018.8 |
| 20260504032832 | 21 | 179 | 1.6 | 1.6 | 0.00 | 0.00 | 0.00 | 77 | 1018.8 |
| 20260504032330 | 21 | 218 | 3.2 | 3.2 | 0.00 | 0.00 | 0.00 | 77 | 1018.8 |
| 20260504031827 | 21 | 188 | 0.0 | 0.0 | 0.00 | 0.00 | 0.00 | 77 | 1018.7 |
| 20260504031324 | 21 | 129 | 0.0 | 1.6 | 0.00 | 0.00 | 0.00 | 77 | 1018.7 |
| 20260504030820 | 21 | 156 | 0.0 | 0.0 | 0.00 | 0.00 | 0.00 | 77 | 1018.7 |
| 20260504030318 | 21 | 173 | 0.0 | 0.0 | 0.00 | 0.00 | 0.00 | 77 | 1018.7 |
| 20260504025813 | 21 | 176 | 0.0 | 0.0 | 0.00 | 0.00 | 0.00 | 77 | 1018.6 |
| 20260504025311 | 21 | 168 | 0.0 | 0.0 | 0.00 | 0.00 | 0.00 | 76 | 1018.6 |
| 20260504024807 | 21 | 175 | 0.0 | 1.6 | 0.00 | 0.00 | 0.00 | 75 | 1018.5 |
| 20260504024304 | 21 | 183 | 3.2 | 3.2 | 0.00 | 0.00 | 0.00 | 75 | 1018.4 |
| 20260504023800 | 21 | 164 | 0.0 | 1.6 | 0.00 | 0.00 | 0.00 | 74 | 1018.4 |
| 20260504023257 | 22 | 264 | 3.2 | 4.8 | 0.00 | 0.00 | 0.00 | 74 | 1018.3 |
| 20260504022753 | 22 | 158 | 1.6 | 1.6 | 0.00 | 0.00 | 0.00 | 73 | 1018.4 |
| 20260504022249 | 22 | 163 | 0.0 | 0.0 | 0.00 | 0.00 | 0.00 | 73 | 1018.4 |
| 20260504021746 | 22 | 43 | 3.2 | 6.4 | 0.00 | 0.00 | 0.00 | 73 | 1018.2 |
| 20260504021244 | 22 | 174 | 3.2 | 3.2 | 0.00 | 0.00 | 0.00 | 73 | 1018.1 |
| 20260504020740 | 22 | 170 | 1.6 | 3.2 | 0.00 | 0.00 | 0.00 | 73 | 1018.1 |
| 20260504020237 | 22 | 167 | 3.2 | 4.8 | 0.00 | 0.00 | 0.00 | 73 | 1018.2 |
| 20260504015733 | 22 | 175 | 0.0 | 0.0 | 0.00 | 0.00 | 0.00 | 73 | 1018.2 |
| 20260504015230 | 22 | 183 | 1.6 | 1.6 | 0.00 | 0.00 | 0.00 | 71 | 1017.9 |
| 20260504014725 | 22 | 174 | 1.6 | 3.2 | 0.00 | 0.00 | 0.00 | 70 | 1017.9 |
| 20260504014222 | 22 | 177 | 1.6 | 1.6 | 0.00 | 0.00 | 0.00 | 70 | 1017.8 |
| 20260504013720 | 22 | 177 | 0.0 | 0.0 | 0.00 | 0.00 | 0.00 | 70 | 1017.8 |
| 20260504013218 | 21 | 179 | 0.0 | 0.0 | 0.00 | 0.00 | 0.00 | 69 | 1017.9 |
| 20260504012714 | 21 | 176 | 0.0 | 0.0 | 0.00 | 0.00 | 0.00 | 70 | 1017.6 |
| 20260504012212 | 21 | 176 | 0.0 | 0.0 | 0.00 | 0.00 | 0.00 | 70 | 1017.9 |
| 20260504011709 | 22 | 182 | 0.0 | 0.0 | 0.00 | 0.00 | 0.00 | 70 | 1017.5 |
| 20260504011205 | 22 | 183 | 0.0 | 0.0 | 0.00 | 0.00 | 0.00 | 69 | 1017.5 |
| 20260504010701 | 22 | 182 | 0.0 | 0.0 | 0.00 | 0.00 | 0.00 | 69 | 1017.4 |
| 20260504010157 | 22 | 182 | 0.0 | 0.0 | 0.00 | 0.00 | 0.00 | 69 | 1017.4 |
| 20260504005654 | 22 | 182 | 1.6 | 1.6 | 0.00 | 0.00 | 0.00 | 69 | 1017.2 |
| 20260504005151 | 22 | 182 | 0.0 | 1.6 | 0.00 | 0.00 | 0.00 | 69 | 1017.1 |
| 20260504004649 | 22 | 182 | 1.6 | 3.2 | 0.00 | 0.00 | 0.00 | 69 | 1017.2 |
| 20260504004145 | 22 | 182 | 0.0 | 0.0 | 0.00 | 0.00 | 0.00 | 68 | 1017.2 |
| 20260504003642 | 22 | 184 | 0.0 | 0.0 | 0.00 | 0.00 | 0.00 | 67 | 1017.0 |
| 20260504003138 | 22 | 182 | 0.0 | 0.0 | 0.00 | 0.00 | 0.00 | 67 | 1017.1 |
| 20260504002635 | 22 | 183 | 3.2 | 3.2 | 0.00 | 0.00 | 0.00 | 66 | 1017.0 |
| 20260504002133 | 22 | 180 | 1.6 | 1.6 | 0.00 | 0.00 | 0.00 | 67 | 1016.8 |
| 20260504001631 | 23 | 180 | 0.0 | 0.0 | 0.00 | 0.00 | 0.00 | 66 | 1016.7 |
| 20260504001126 | 23 | 179 | 0.0 | 0.0 | 0.00 | 0.00 | 0.00 | 64 | 1016.6 |
| 20260504000624 | 23 | 174 | 0.0 | 1.6 | 0.00 | 0.00 | 0.00 | 63 | 1016.6 |
| 20260504000121 | 23 | 175 | 0.0 | 0.0 | 0.00 | 0.00 | 0.00 | 61 | 1016.7 |
| 20260503235620 | 24 | 175 | 0.0 | 0.0 | 0.00 | 0.00 | 0.00 | 60 | 1016.4 |
| 20260503235116 | 25 | 173 | 0.0 | 0.0 | 0.00 | 0.00 | 0.00 | 59 | 1016.4 |
| 20260503234614 | 25 | 173 | 0.0 | 0.0 | 0.00 | 0.00 | 0.00 | 59 | 1016.4 |
| 20260503234112 | 25 | 175 | 0.0 | 1.6 | 0.00 | 0.00 | 0.00 | 57 | 1016.3 |
| 20260503233608 | 26 | 178 | 0.0 | 0.0 | 0.00 | 0.00 | 0.00 | 57 | 1016.6 |
| 20260503233059 | 26 | 178 | 0.0 | 0.0 | 0.00 | 0.00 | 0.00 | 54 | 1016.5 |
| 20260503232556 | 26 | 176 | 0.0 | 1.6 | 0.00 | 0.00 | 0.00 | 55 | 1016.5 |
| 20260503232053 | 26 | 168 | 0.0 | 0.0 | 0.00 | 0.00 | 0.00 | 53 | 1016.6 |
| 20260503231551 | 26 | 172 | 3.2 | 3.2 | 0.00 | 0.00 | 0.00 | 53 | 1016.4 |
| 20260503231048 | 26 | 190 | 0.0 | 0.0 | 0.00 | 0.00 | 0.00 | 53 | 1016.2 |
| 20260503230544 | 26 | 174 | 1.6 | 1.6 | 0.00 | 0.00 | 0.00 | 52 | 1016.3 |
| 20260503230042 | 26 | 173 | 0.0 | 0.0 | 0.00 | 0.00 | 0.00 | 54 | 1016.4 |
| 20260503225538 | 26 | 280 | 3.2 | 4.8 | 0.00 | 0.00 | 0.00 | 53 | 1016.6 |
| 20260503225033 | 26 | 170 | 1.6 | 1.6 | 0.00 | 0.00 | 0.00 | 53 | 1016.5 |
| 20260503224531 | 26 | 173 | 0.0 | 1.6 | 0.00 | 0.00 | 0.00 | 52 | 1016.3 |
| 20260503224029 | 26 | 175 | 0.0 | 0.0 | 0.00 | 0.00 | 0.00 | 53 | 1016.2 |
| 20260503223527 | 26 | 159 | 0.0 | 1.6 | 0.00 | 0.00 | 0.00 | 53 | 1016.4 |
| 20260503223022 | 26 | 198 | 1.6 | 1.6 | 0.00 | 0.00 | 0.00 | 52 | 1016.3 |
| 20260503222520 | 26 | 177 | 0.0 | 0.0 | 0.00 | 0.00 | 0.00 | 52 | 1016.4 |
| 20260503222018 | 26 | 86 | 3.2 | 3.2 | 0.00 | 0.00 | 0.00 | 54 | 1016.3 |
| 20260503221516 | 26 | 177 | 1.6 | 3.2 | 0.00 | 0.00 | 0.00 | 54 | 1016.4 |
| 20260503221013 | 26 | 161 | 1.6 | 3.2 | 0.00 | 0.00 | 0.00 | 54 | 1016.2 |
| 20260503220509 | 26 | 214 | 1.6 | 1.6 | 0.00 | 0.00 | 0.00 | 52 | 1016.5 |
| 20260503220006 | 26 | 205 | 3.2 | 3.2 | 0.00 | 0.00 | 0.00 | 53 | 1016.6 |
| 20260503215503 | 26 | 168 | 0.0 | 0.0 | 0.00 | 0.00 | 0.00 | 54 | 1016.5 |